Regional Weather Roundup
Issued by NWS

Home | Current Version | Previous Version | Text Only | Print | Product List | Glossary Off
Versions: 1 2 3 4 5 6 7 8 9 10 11 12 13 14 15 16 17 18 19 20 21 22 23 24 25 26 27 28 29 30 31 32 33 34 35 36 37 38 39 40 41 42 43 44 45 46 47 48 49 50

000
ASUS43 KMPX 252110
RWRMN
WEATHER ROUNDUP FOR MINNESOTA
NATIONAL WEATHER SERVICE TWIN CITIES/CHANHASSEN MN
400 PM CDT THU AUG 25 2016


NOTE: "FAIR" INDICATES FEW OR NO CLOUDS BELOW 12,000 FEET WITH NO
SIGNIFICANT WEATHER AND/OR OBSTRUCTIONS TO VISIBILITY. N/A MEANS
CURRENT SKY AND/OR WEATHER CONDITIONS ARE NOT AVAILABLE.

MNZ060>063-068>070-252200-
   Twin Cities Metro

CITY           SKY/WX    TMP DP  RH WIND       PRES   REMARKS
TWIN CITIES    PTSUNNY   74  55  51 W14G22    30.06R
ST PAUL        MOSUNNY   72  56  57 W10       30.06R
CRYSTAL        CLOUDY    72  53  51 NW18      30.06R
LAKEVILLE      MOSUNNY   70  57  64 W10       30.07S
EDEN PRAIRIE   MOSUNNY   74  56  53 W14       30.06R
LAKEVILLE      MOSUNNY   70  57  64 W10       30.07S
SOUTH ST PAUL  MOSUNNY   73  55  52 W13       30.06S
LAKE ELMO      FAIR      72  55  56 W12       30.07R
$$
MNZ001>005-007-008-013>017-022>024-027-028-252200-
   Northwest Minnesota

CITY           SKY/WX    TMP DP  RH WIND       PRES   REMARKS
BEMIDJI        CLOUDY    60  55  81 W12       30.03R
HALLOCK        CLOUDY    64  52  63 N8        30.03R
ROSEAU         MOSUNNY   66  54  63 W9        30.00R
WARROAD        MOSUNNY   64  54  68 NW14G20   29.99S
THIEF RVR FALL CLOUDY    68  49  50 NW15      30.04R
CROOKSTON      CLOUDY    68  48  49 NW13      30.05R
FOSSTON        MOSUNNY   66  52  59 W12G17    30.05S
DETROIT LAKES  PTSUNNY   63  52  67 NW12G17   30.08S
MOORHEAD       PTSUNNY   68  50  52 N8G18     30.07S
PARK RAPIDS    CLOUDY    64  51  62 NW18G25   30.05R
MAHNOMEN       CLOUDY    65  51  59 NW10G16   30.05S
$$
MNZ006-009>011-018-025>026-252200-
   North Central Minnesota

CITY           SKY/WX    TMP DP  RH WIND       PRES   REMARKS
BAUDETTE       CLOUDY    63  55  75 NW14      29.96R
FLAG ISLAND    PTSUNNY   63  54  72 NW8       29.96S
INTL FALLS     CLOUDY    63  58  83 W16G22    29.92R
WASKISH        CLOUDY    63  55  77 W13       29.99R
BIG FORK       PTSUNNY   66  57  72 W8        29.97R
LONGVILLE      CLOUDY    64  57  77 W14       30.02R
GRAND RAPIDS   CLOUDY    65  55  70 W9G16     30.01R
CRANE LAKE     PTSUNNY   64  57  77 W5        29.92F
ORR            PTSUNNY   66  54  63 W10G17    29.91S
COOK           CLOUDY    64  55  72 W14G24    29.95R
WALKER         CLOUDY    63  53  69 W13G22    30.03R
$$
MNZ012-019>021-037-252200-
   Northeast Minnesota

CITY           SKY/WX    TMP DP  RH WIND       PRES   REMARKS
DULUTH         PTSUNNY   67  53  61 W21       29.99R
ELY            PTSUNNY   63  54  72 W16       29.94R
HIBBING        PTSUNNY   64  56  75 W9G18     29.97S
EVELETH        PTSUNNY   63  53  71 W10       29.98R
DULUTH HARBOR  CLOUDY    70  55  60 W21G26    29.98R
TWO HARBORS    PTSUNNY   70  57  64 W17       29.94S
SILVER BAY     MOSUNNY   72  55  56 SW8       29.92S
GRAND MARAIS     N/A     67  48  50 SW20      29.87R
G MARAIS ARPRT PTSUNNY   68  46  45 SW15G22   29.92R
$$
MNZ029>031-032-039>041-046>048-054>057-064-252200-
   West Central Minnesota

CITY           SKY/WX    TMP DP  RH WIND       PRES   REMARKS
FERGUS FALLS   CLOUDY    64  54  68 NW8       30.10S
WHEATON        PTSUNNY   66  55  68 W10       30.12S
MORRIS         CLOUDY    66  54  63 W12       30.10S
ALEXANDRIA     CLOUDY    66  53  63 W13       30.10S
ELBOW LAKE     CLOUDY    65  55  68 NW10      30.10R
WADENA         CLOUDY    61  55  82 W13G18    30.07S
GLENWOOD       MOSUNNY   64  54  68 W9G17     30.10S
APPLETON       CLOUDY    68  52  56 NW13      30.11S
BENSON         CLOUDY    68  52  56 NW16      30.11S
ORTONVILLE     CLOUDY    66  50  55 W12       30.11S
MADISON        MOSUNNY   70  54  56 NW12      30.11F
WILLMAR        FAIR      68  55  64 NW12      30.12S
$$
MNZ033>034-036-042>043-049>051-058-059-252200-
   Central Minnesota

CITY           SKY/WX    TMP DP  RH WIND       PRES   REMARKS
ST CLOUD       CLOUDY    67  54  63 W16       30.08R
SAUK CENTRE    CLOUDY    65  54  67 W9G17     30.09S
PAYNESVILLE    CLOUDY    68  53  59 W13       30.10S
AITKIN         CLOUDY    68  52  56 W6        30.02R
PINE RIVER     CLOUDY    64  55  72 W9G16     30.06S
BRAINERD       CLOUDY    67  54  63 W9        30.04S
STAPLES        CLOUDY    63  54  72 NW15G24   30.06R
LONG PRAIRIE   CLOUDY    63  52  67 SW10G16   30.09S
LITTLE FALLS   CLOUDY    64  52  63 W9        30.08R
LITCHFIELD     PTSUNNY   70  55  60 W12G20    30.10S
BUFFALO        PTSUNNY   69  53  56 W12G18    30.09R
MAPLE LAKE     PTSUNNY   71  56  59 W10G20    30.09R
HUTCHINSON     MOSUNNY   72  58  62 W14G23    30.11R
$$
MNZ037-044-045-052-053-252200-
   East Central Minnesota

CITY           SKY/WX    TMP DP  RH WIND       PRES   REMARKS
PRINCETON      PTSUNNY   72  54  53 W13G21    30.07R
MORA           PTSUNNY   64  52  63 W9        30.07R
CAMBRIDGE      MOSUNNY   72  55  56 W12G20    30.05R
RUSH CITY      MOSUNNY   71  55  56 W13       30.05S
MOOSE LAKE     CLOUDY    66  52  59 W12       30.01S
HINCKLEY       CLOUDY    70  54  56 W12G20    30.04R
CLOQUET        PTSUNNY   64  52  63 W14       30.00S
MCGREGOR       CLOUDY    64  54  68 W8        30.02S
$$
MNZ071>073-080-081-089-090-097-098-252200-
   Southwest Minnesota

CITY           SKY/WX    TMP DP  RH WIND       PRES   REMARKS
MONTEVIDEO     PTSUNNY   72  55  56 N12G17    30.13S
GRANITE FALLS  PTSUNNY   71  58  62 W13G18    30.13S
CANBY          PTSUNNY   70  54  56 NW16      30.13F
MARSHALL       MOSUNNY   71  55  56 NW16      30.11F
REDWOOD FALLS  MOSUNNY   74  56  53 W14       30.10S
OLIVIA         MOSUNNY   70  55  60 NW12G17   30.09F
PIPESTONE      SUNNY     72  52  49 NW15      30.14S
WINDOM         SUNNY     73  55  53 W12       30.12S
WORTHINGTON    SUNNY     71  57  61 W12       30.14S
JACKSON        SUNNY     73  54  49 W13       30.13S
TRACY          MOSUNNY   73  57  57 W7G16     30.12S
SLAYTON        MOSUNNY   72  55  56 W12       30.14S
$$
MNZ065>067-074>077-082>085-091>093-252200-
   South Central Minnesota

CITY           SKY/WX    TMP DP  RH WIND       PRES   REMARKS
MANKATO        CLOUDY    72  55  56 NW15      30.09F
NEW ULM          N/A     72  57  60 W14G20    30.10S
ST JAMES       SUNNY     68  54  60 W8        30.11F
FAIRMONT       SUNNY     74  57  55 NW15      30.11S
GLENCOE        SUNNY     72  59  64 W13G20    30.09R
FARIBAULT      MOSUNNY   73  57  56 W10       30.09S
OWATONNA       MOSUNNY   73  55  53 W8        30.09S
WASECA         MOSUNNY   72  59  64 W8        30.10F
ALBERT LEA     MOSUNNY   73  57  56 W7        30.09S
$$
MNZ078>079-086>088-094>096-252200-
   Southeast Minnesota

CITY           SKY/WX    TMP DP  RH WIND       PRES   REMARKS
ROCHESTER      MOSUNNY   77  61  57 W9        30.08F
RED WING       MOSUNNY   75  54  46 W14       30.04S
STANTON        MOSUNNY   73  57  56 W10       30.06F
DODGE CENTER   MOSUNNY   75  55  50 W10       30.08F
WINONA         PTSUNNY   77  59  53 W5        30.05S
AUSTIN         PTSUNNY   73  57  56 W9        30.09S
PRESTON        PTSUNNY   74  58  59 W12       30.09S
$$
ABBREVIATIONS USED IN REMARKS
   TC - TEMPERATURES IN CELSIUS
  WCI - WIND CHILL INDEX
   HX - HEAT INDEX
  VSB - VISIBILITY
$$



USA.gov is the U.S. government's official web portal to all federal, state and local government web resources and services.